QPF
0.00 0.00 0.00 0.00 0.00 0.00 0.00 0.00 0.00 0.00 0.00 0.00 0.00 0.00 0.00 0.00 0.00 0.00 0.00 0.01 0.00 0.00 0.01 0.00 0.01 0.02 0.03 0.04 0.03 0.03 0.02 0.02 0.03 0.04 0.04 0.04 0.04 0.03 0.03 0.03 0.04 0.05 0.06 0.07
0.00 0.00 0.00 0.00 0.00 0.00 0.00 0.00 0.00 0.00 0.00 0.00 0.00 0.00 0.00 0.00 0.01 0.01 0.01 0.01 0.01 0.01 0.00 0.01 0.01 0.02 0.03 0.03 0.04 0.04 0.04 0.04 0.03 0.03 0.03 0.03 0.03 0.04 0.04 0.04 0.05 0.05 0.05 0.06
0.00 0.00 0.00 0.00 0.00 0.00 0.00 0.00 0.00 0.00 0.00 0.00 0.00 0.00 0.00 0.01 0.01 0.01 0.01 0.01 0.01 0.01 0.01 0.01 0.02 0.02 0.01 0.02 0.03 0.03 0.04 0.04 0.03 0.02 0.02 0.02 0.04 0.04 0.04 0.04 0.05 0.04 0.04 0.05
0.00 0.01 0.01 0.00 0.00 0.00 0.00 0.00 0.00 0.00 0.00 0.00 0.00 0.01 0.01 0.01 0.01 0.01 0.01 0.02 0.03 0.02 0.01 0.01 0.01 0.01 0.01 0.02 0.02 0.02 0.02 0.03 0.03 0.03 0.03 0.03 0.04 0.04 0.04 0.04 0.04 0.04 0.03 0.03
0.00 0.00 0.00 0.00 0.00 0.00 0.01 0.01 0.00 0.00 0.00 0.00 0.01 0.01 0.01 0.01 0.01 0.01 0.01 0.01 0.01 0.01 0.01 0.01 0.01 0.01 0.01 0.02 0.04 0.03 0.03 0.03 0.04 0.04 0.04 0.04 0.04 0.04 0.05 0.04 0.03 0.03 0.03 0.04
0.00 0.00 0.00 0.00 0.00 0.00 0.01 0.01 0.00 0.00 0.00 0.01 0.01 0.01 0.01 0.01 0.01 0.02 0.01 0.01 0.01 0.01 0.00 0.01 0.00 0.01 0.01 0.02 0.03 0.05 0.05 0.04 0.04 0.05 0.06 0.05 0.05 0.05 0.04 0.03 0.04 0.03 0.04 0.04
0.00 0.00 0.00 0.00 0.00 0.00 0.01 0.01 0.00 0.00 0.00 0.00 0.01 0.01 0.01 0.01 0.01 0.02 0.03 0.03 0.02 0.01 0.00 0.01 0.00 0.00 0.01 0.02 0.04 0.05 0.05 0.04 0.05 0.05 0.06 0.05 0.04 0.05 0.05 0.03 0.04 0.04 0.03 0.02
0.01 0.01 0.01 0.00 0.00 0.00 0.01 0.00 0.00 0.00 0.01 0.01 0.01 0.01 0.01 0.01 0.01 0.02 0.05 0.04 0.02 0.01 0.01 0.00 0.01 0.01 0.01 0.03 0.03 0.04 0.05 0.05 0.05 0.04 0.05 0.05 0.05 0.07 0.07 0.05 0.04 0.04 0.03 0.02
0.01 0.01 0.01 0.00 0.00 0.00 0.00 0.00 0.00 0.00 0.01 0.01 0.01 0.01 0.01 0.01 0.02 0.02 0.03 0.03 0.02 0.01 0.01 0.01 0.01 0.01 0.02 0.03 0.03 0.03 0.04 0.06 0.06 0.05 0.05 0.04 0.05 0.07 0.07 0.06 0.05 0.05 0.04 0.02
0.01 0.01 0.01 0.00 0.00 0.00 0.00 0.00 0.00 0.01 0.01 0.01 0.01 0.01 0.01 0.01 0.02 0.01 0.01 0.01 0.02 0.01 0.01 0.01 0.01 0.01 0.02 0.02 0.02 0.02 0.04 0.05 0.05 0.05 0.04 0.03 0.04 0.07 0.06 0.06 0.06 0.06 0.04 0.03
0.01 0.01 0.01 0.00 0.00 0.00 0.00 0.00 0.00 0.01 0.01 0.01 0.01 0.01 0.02 0.02 0.02 0.01 0.01 0.01 0.01 0.01 0.01 0.02 0.01 0.01 0.01 0.02 0.02 0.03 0.03 0.04 0.04 0.05 0.05 0.05 0.04 0.04 0.04 0.05 0.05 0.05 0.06 0.06
0.01 0.01 0.01 0.01 0.01 0.00 0.00 0.00 0.00 0.00 0.01 0.02 0.02 0.02 0.02 0.02 0.02 0.01 0.01 0.01 0.01 0.02 0.02 0.02 0.02 0.02 0.02 0.02 0.03 0.03 0.03 0.03 0.04 0.04 0.05 0.05 0.04 0.04 0.06 0.06 0.05 0.05 0.06 0.06
0.01 0.01 0.01 0.00 0.00 0.01 0.01 0.01 0.00 0.01 0.01 0.02 0.03 0.03 0.03 0.02 0.01 0.01 0.01 0.02 0.03 0.03 0.03 0.02 0.02 0.02 0.02 0.02 0.03 0.03 0.03 0.03 0.04 0.04 0.04 0.04 0.04 0.04 0.05 0.06 0.07 0.08 0.07 0.05
0.01 0.01 0.01 0.00 0.01 0.01 0.03 0.02 0.02 0.02 0.02 0.02 0.03 0.04 0.03 0.02 0.02 0.02 0.02 0.02 0.02 0.02 0.03 0.02 0.01 0.01 0.01 0.01 0.03 0.04 0.04 0.05 0.04 0.03 0.03 0.04 0.05 0.06 0.06 0.06 0.06 0.07 0.08 0.07
0.01 0.01 0.01 0.00 0.01 0.02 0.03 0.04 0.03 0.04 0.04 0.03 0.04 0.04 0.04 0.04 0.03 0.03 0.03 0.03 0.03 0.03 0.03 0.02 0.02 0.02 0.01 0.01 0.02 0.03 0.03 0.04 0.04 0.03 0.03 0.04 0.06 0.09 0.11 0.10 0.11 0.11 0.11 0.09
0.00 0.01 0.01 0.01 0.03 0.06 0.05 0.05 0.05 0.06 0.06 0.04 0.04 0.05 0.05 0.04 0.03 0.02 0.02 0.02 0.02 0.03 0.03 0.03 0.03 0.02 0.01 0.01 0.02 0.02 0.03 0.05 0.05 0.03 0.02 0.03 0.03 0.04 0.05 0.07 0.09 0.11 0.11 0.09
0.01 0.01 0.02 0.02 0.04 0.08 0.08 0.07 0.07 0.08 0.07 0.06 0.05 0.04 0.04 0.04 0.03 0.03 0.03 0.02 0.02 0.03 0.03 0.03 0.03 0.03 0.02 0.02 0.02 0.02 0.02 0.03 0.03 0.02 0.02 0.02 0.02 0.02 0.02 0.03 0.04 0.04 0.05 0.07
0.02 0.03 0.04 0.05 0.06 0.07 0.08 0.08 0.07 0.08 0.08 0.06 0.04 0.04 0.03 0.03 0.03 0.03 0.02 0.02 0.02 0.02 0.03 0.03 0.03 0.04 0.03 0.03 0.02 0.03 0.02 0.01 0.02 0.02 0.02 0.02 0.02 0.02 0.02 0.02 0.02 0.03 0.03 0.04
0.04 0.05 0.06 0.07 0.09 0.08 0.07 0.06 0.06 0.06 0.07 0.05 0.04 0.03 0.03 0.03 0.03 0.03 0.03 0.02 0.02 0.02 0.03 0.03 0.05 0.05 0.05 0.05 0.04 0.05 0.04 0.03 0.03 0.02 0.02 0.02 0.02 0.01 0.02 0.03 0.04 0.04 0.04 0.04
0.05 0.06 0.07 0.07 0.08 0.08 0.08 0.08 0.07 0.07 0.05 0.04 0.04 0.04 0.03 0.03 0.04 0.04 0.04 0.03 0.03 0.03 0.03 0.04 0.05 0.06 0.05 0.06 0.05 0.05 0.05 0.04 0.04 0.03 0.03 0.03 0.03 0.03 0.03 0.04 0.05 0.07 0.06 0.06
0.05 0.05 0.06 0.06 0.07 0.07 0.06 0.06 0.07 0.07 0.06 0.05 0.04 0.04 0.05 0.04 0.04 0.03 0.03 0.04 0.04 0.04 0.02 0.03 0.03 0.04 0.03 0.04 0.04 0.04 0.03 0.03 0.02 0.03 0.04 0.04 0.04 0.04 0.03 0.03 0.04 0.05 0.05 0.05
0.07 0.07 0.08 0.07 0.06 0.05 0.06 0.06 0.07 0.07 0.07 0.06 0.05 0.05 0.04 0.04 0.04 0.03 0.02 0.03 0.03 0.03 0.02 0.02 0.02 0.03 0.02 0.02 0.02 0.02 0.02 0.02 0.01 0.01 0.02 0.02 0.02 0.02 0.02 0.02 0.03 0.04 0.03 0.04
0.07 0.07 0.10 0.09 0.06 0.04 0.04 0.04 0.05 0.05 0.04 0.04 0.04 0.04 0.04 0.03 0.02 0.02 0.02 0.01 0.01 0.02 0.02 0.02 0.03 0.03 0.02 0.01 0.01 0.02 0.02 0.02 0.02 0.02 0.02 0.02 0.02 0.03 0.03 0.03 0.04 0.04 0.02 0.02
0.07 0.08 0.08 0.07 0.06 0.05 0.04 0.04 0.04 0.03 0.03 0.04 0.05 0.05 0.04 0.03 0.03 0.02 0.02 0.01 0.01 0.01 0.01 0.01 0.02 0.04 0.04 0.04 0.03 0.03 0.03 0.02 0.02 0.02 0.03 0.03 0.03 0.03 0.02 0.02 0.03 0.02 0.02 0.02
0.09 0.09 0.07 0.06 0.06 0.05 0.04 0.03 0.03 0.03 0.03 0.04 0.05 0.07 0.05 0.03 0.03 0.02 0.02 0.01 0.01 0.01 0.01 0.01 0.02 0.03 0.04 0.05 0.05 0.05 0.05 0.04 0.04 0.04 0.04 0.03 0.03 0.02 0.01 0.02 0.03 0.02 0.02 0.02
0.07 0.06 0.05 0.04 0.03 0.03 0.03 0.03 0.02 0.02 0.02 0.03 0.04 0.05 0.06 0.03 0.03 0.02 0.02 0.01 0.01 0.01 0.01 0.01 0.02 0.02 0.02 0.02 0.01 0.01 0.02 0.02 0.02 0.02 0.02 0.02 0.02 0.01 0.01 0.01 0.02 0.02 0.02 0.02
0.05 0.04 0.03 0.03 0.02 0.02 0.02 0.02 0.02 0.01 0.01 0.02 0.02 0.03 0.04 0.03 0.03 0.03 0.02 0.02 0.01 0.00 0.00 0.00 0.01 0.01 0.01 0.01 0.01 0.01 0.01 0.00 0.00 0.00 0.01 0.01 0.01 0.01 0.01 0.01 0.01 0.01 0.01 0.02
MSLP
1012.45 1012.73 1013.06 1013.42 1013.76 1014.02 1014.18 1014.19 1014.06 1013.81 1013.50 1013.18 1012.93 1012.80 1012.83 1013.04 1013.41 1013.91 1014.48 1015.08 1015.64 1016.14 1016.57 1016.92 1017.20 1017.46 1017.70 1017.95 1018.22 1018.50 1018.76 1019.01 1019.20 1019.34 1019.40 1019.41 1019.36 1019.29 1019.19 1019.10 1019.01 1018.93 1018.85 1018.77
1012.78 1013.03 1013.30 1013.58 1013.82 1013.99 1014.05 1014.00 1013.84 1013.59 1013.32 1013.08 1012.94 1012.94 1013.11 1013.47 1013.98 1014.60 1015.29 1015.98 1016.62 1017.19 1017.65 1018.02 1018.32 1018.56 1018.79 1019.01 1019.24 1019.49 1019.73 1019.96 1020.15 1020.30 1020.38 1020.42 1020.40 1020.35 1020.28 1020.20 1020.13 1020.05 1019.98 1019.90
1013.18 1013.39 1013.61 1013.80 1013.94 1014.01 1013.99 1013.88 1013.69 1013.47 1013.25 1013.10 1013.08 1013.22 1013.54 1014.03 1014.67 1015.40 1016.18 1016.94 1017.64 1018.24 1018.72 1019.09 1019.38 1019.60 1019.80 1019.98 1020.17 1020.38 1020.59 1020.79 1020.96 1021.10 1021.18 1021.22 1021.22 1021.19 1021.14 1021.08 1021.02 1020.96 1020.90 1020.84
1013.62 1013.80 1013.95 1014.06 1014.11 1014.09 1013.99 1013.83 1013.64 1013.45 1013.31 1013.27 1013.38 1013.65 1014.11 1014.73 1015.48 1016.31 1017.15 1017.96 1018.68 1019.28 1019.76 1020.11 1020.37 1020.56 1020.72 1020.86 1021.00 1021.16 1021.32 1021.48 1021.63 1021.74 1021.82 1021.85 1021.85 1021.83 1021.80 1021.76 1021.72 1021.69 1021.66 1021.62
1014.04 1014.19 1014.28 1014.31 1014.28 1014.18 1014.03 1013.85 1013.67 1013.54 1013.49 1013.57 1013.81 1014.23 1014.83 1015.56 1016.40 1017.29 1018.17 1018.99 1019.70 1020.29 1020.74 1021.06 1021.28 1021.43 1021.54 1021.63 1021.73 1021.85 1021.96 1022.08 1022.19 1022.28 1022.34 1022.37 1022.37 1022.36 1022.35 1022.34 1022.33 1022.33 1022.32 1022.31
1014.38 1014.49 1014.53 1014.50 1014.41 1014.26 1014.09 1013.91 1013.78 1013.72 1013.78 1013.99 1014.38 1014.94 1015.65 1016.48 1017.39 1018.31 1019.20 1020.00 1020.68 1021.22 1021.62 1021.90 1022.08 1022.19 1022.26 1022.32 1022.39 1022.46 1022.55 1022.63 1022.71 1022.78 1022.82 1022.85 1022.86 1022.88 1022.89 1022.91 1022.94 1022.97 1023.01 1023.03
1014.57 1014.65 1014.65 1014.59 1014.46 1014.30 1014.14 1014.01 1013.95 1014.00 1014.19 1014.54 1015.06 1015.74 1016.55 1017.45 1018.39 1019.32 1020.19 1020.94 1021.57 1022.05 1022.40 1022.63 1022.77 1022.85 1022.90 1022.94 1022.98 1023.04 1023.10 1023.17 1023.24 1023.29 1023.34 1023.38 1023.41 1023.45 1023.50 1023.56 1023.63 1023.71 1023.78 1023.83
1014.59 1014.65 1014.64 1014.56 1014.44 1014.31 1014.20 1014.15 1014.20 1014.38 1014.71 1015.19 1015.84 1016.63 1017.51 1018.45 1019.39 1020.29 1021.10 1021.80 1022.35 1022.76 1023.05 1023.23 1023.34 1023.40 1023.44 1023.48 1023.53 1023.59 1023.66 1023.73 1023.80 1023.87 1023.93 1023.98 1024.04 1024.12 1024.21 1024.32 1024.44 1024.56 1024.66 1024.74
1014.47 1014.52 1014.51 1014.46 1014.38 1014.32 1014.31 1014.38 1014.56 1014.88 1015.35 1015.97 1016.72 1017.58 1018.51 1019.45 1020.37 1021.21 1021.94 1022.55 1023.02 1023.35 1023.58 1023.72 1023.81 1023.87 1023.92 1023.98 1024.05 1024.14 1024.23 1024.33 1024.42 1024.50 1024.58 1024.66 1024.76 1024.87 1025.00 1025.15 1025.32 1025.48 1025.62 1025.71
1014.25 1014.31 1014.33 1014.33 1014.34 1014.39 1014.50 1014.72 1015.05 1015.52 1016.13 1016.86 1017.70 1018.61 1019.54 1020.46 1021.31 1022.07 1022.71 1023.21 1023.59 1023.85 1024.02 1024.13 1024.20 1024.27 1024.35 1024.44 1024.55 1024.68 1024.81 1024.94 1025.06 1025.17 1025.27 1025.38 1025.51 1025.65 1025.81 1026.00 1026.20 1026.39 1026.54 1026.65
1014.02 1014.10 1014.18 1014.27 1014.39 1014.57 1014.84 1015.21 1015.70 1016.32 1017.05 1017.87 1018.77 1019.69 1020.60 1021.46 1022.23 1022.89 1023.42 1023.82 1024.10 1024.29 1024.41 1024.49 1024.56 1024.64 1024.75 1024.88 1025.04 1025.21 1025.37 1025.54 1025.69 1025.82 1025.95 1026.08 1026.22 1026.38 1026.56 1026.76 1026.97 1027.17 1027.33 1027.43
1013.85 1013.98 1014.13 1014.33 1014.58 1014.91 1015.34 1015.87 1016.51 1017.25 1018.08 1018.97 1019.89 1020.80 1021.66 1022.44 1023.12 1023.67 1024.09 1024.39 1024.58 1024.71 1024.79 1024.85 1024.92 1025.02 1025.15 1025.32 1025.51 1025.71 1025.91 1026.10 1026.27 1026.42 1026.55 1026.68 1026.82 1026.97 1027.15 1027.34 1027.54 1027.72 1027.86 1027.94
1013.78 1013.97 1014.21 1014.53 1014.93 1015.41 1015.99 1016.67 1017.43 1018.27 1019.17 1020.09 1021.01 1021.88 1022.68 1023.37 1023.95 1024.40 1024.72 1024.94 1025.07 1025.14 1025.19 1025.24 1025.31 1025.42 1025.57 1025.76 1025.98 1026.20 1026.41 1026.60 1026.77 1026.92 1027.04 1027.15 1027.27 1027.40 1027.54 1027.69 1027.85 1028.00 1028.10 1028.14
1013.80 1014.06 1014.41 1014.86 1015.39 1016.02 1016.74 1017.54 1018.40 1019.31 1020.24 1021.16 1022.05 1022.87 1023.60 1024.21 1024.70 1025.07 1025.32 1025.47 1025.55 1025.60 1025.63 1025.67 1025.74 1025.86 1026.02 1026.21 1026.43 1026.65 1026.86 1027.04 1027.19 1027.31 1027.41 1027.48 1027.56 1027.64 1027.72 1027.82 1027.92 1028.00 1028.05 1028.03
1013.88 1014.23 1014.69 1015.26 1015.92 1016.67 1017.50 1018.39 1019.31 1020.25 1021.19 1022.10 1022.94 1023.70 1024.36 1024.91 1025.33 1025.64 1025.85 1025.97 1026.03 1026.06 1026.09 1026.14 1026.21 1026.33 1026.49 1026.67 1026.87 1027.07 1027.26 1027.41 1027.53 1027.61 1027.66 1027.69 1027.71 1027.73 1027.75 1027.77 1027.80 1027.80 1027.78 1027.70
1013.95 1014.40 1014.97 1015.65 1016.43 1017.28 1018.19 1019.14 1020.09 1021.04 1021.96 1022.83 1023.63 1024.33 1024.94 1025.43 1025.82 1026.10 1026.29 1026.41 1026.48 1026.52 1026.56 1026.62 1026.70 1026.81 1026.96 1027.12 1027.30 1027.46 1027.61 1027.72 1027.80 1027.84 1027.84 1027.81 1027.77 1027.72 1027.67 1027.62 1027.56 1027.50 1027.40 1027.27
1013.96 1014.51 1015.19 1015.98 1016.86 1017.79 1018.76 1019.73 1020.70 1021.63 1022.52 1023.34 1024.09 1024.74 1025.31 1025.77 1026.14 1026.43 1026.63 1026.77 1026.87 1026.95 1027.01 1027.09 1027.18 1027.29 1027.41 1027.55 1027.69 1027.82 1027.92 1027.99 1028.02 1028.02 1027.97 1027.89 1027.79 1027.68 1027.57 1027.44 1027.32 1027.18 1027.02 1026.83
1013.88 1014.54 1015.33 1016.22 1017.18 1018.17 1019.17 1020.16 1021.11 1022.02 1022.86 1023.64 1024.34 1024.96 1025.49 1025.95 1026.33 1026.63 1026.87 1027.06 1027.20 1027.32 1027.42 1027.52 1027.62 1027.73 1027.84 1027.95 1028.05 1028.14 1028.20 1028.23 1028.22 1028.17 1028.08 1027.96 1027.82 1027.66 1027.49 1027.31 1027.13 1026.93 1026.73 1026.50
1013.74 1014.52 1015.41 1016.39 1017.41 1018.45 1019.47 1020.45 1021.38 1022.25 1023.05 1023.78 1024.44 1025.03 1025.55 1026.01 1026.41 1026.74 1027.03 1027.27 1027.46 1027.63 1027.77 1027.89 1028.01 1028.11 1028.21 1028.29 1028.37 1028.42 1028.44 1028.43 1028.39 1028.31 1028.19 1028.04 1027.87 1027.67 1027.47 1027.25 1027.03 1026.80 1026.57 1026.33
1013.61 1014.50 1015.49 1016.54 1017.62 1018.68 1019.71 1020.67 1021.57 1022.40 1023.16 1023.85 1024.47 1025.04 1025.55 1026.02 1026.44 1026.81 1027.14 1027.42 1027.67 1027.88 1028.05 1028.20 1028.32 1028.43 1028.51 1028.58 1028.63 1028.65 1028.65 1028.61 1028.54 1028.44 1028.30 1028.14 1027.94 1027.73 1027.50 1027.27 1027.03 1026.79 1026.55 1026.30
1013.58 1014.58 1015.65 1016.76 1017.86 1018.94 1019.95 1020.89 1021.76 1022.54 1023.26 1023.91 1024.50 1025.05 1025.56 1026.03 1026.47 1026.87 1027.23 1027.55 1027.83 1028.07 1028.27 1028.44 1028.57 1028.67 1028.75 1028.80 1028.83 1028.83 1028.80 1028.75 1028.66 1028.54 1028.40 1028.22 1028.02 1027.81 1027.58 1027.34 1027.10 1026.86 1026.63 1026.39
1013.75 1014.82 1015.95 1017.09 1018.20 1019.26 1020.25 1021.16 1021.98 1022.72 1023.40 1024.01 1024.58 1025.11 1025.61 1026.08 1026.52 1026.93 1027.31 1027.65 1027.95 1028.21 1028.43 1028.60 1028.74 1028.84 1028.91 1028.94 1028.96 1028.94 1028.90 1028.83 1028.73 1028.60 1028.45 1028.28 1028.08 1027.87 1027.65 1027.43 1027.20 1026.98 1026.77 1026.56
1014.16 1015.27 1016.42 1017.56 1018.65 1019.68 1020.63 1021.48 1022.26 1022.96 1023.59 1024.17 1024.70 1025.21 1025.69 1026.15 1026.59 1027.00 1027.38 1027.73 1028.03 1028.30 1028.51 1028.69 1028.82 1028.91 1028.97 1029.00 1029.00 1028.97 1028.92 1028.83 1028.73 1028.60 1028.44 1028.27 1028.09 1027.89 1027.69 1027.50 1027.30 1027.11 1026.93 1026.75
1014.80 1015.92 1017.05 1018.15 1019.19 1020.16 1021.04 1021.84 1022.56 1023.21 1023.80 1024.35 1024.85 1025.34 1025.80 1026.25 1026.67 1027.07 1027.43 1027.77 1028.06 1028.31 1028.52 1028.68 1028.81 1028.89 1028.94 1028.96 1028.95 1028.91 1028.84 1028.75 1028.64 1028.51 1028.36 1028.20 1028.03 1027.86 1027.69 1027.52 1027.37 1027.22 1027.08 1026.93
1015.64 1016.71 1017.78 1018.80 1019.76 1020.64 1021.45 1022.18 1022.84 1023.44 1023.99 1024.51 1024.99 1025.45 1025.89 1026.31 1026.72 1027.09 1027.43 1027.74 1028.02 1028.25 1028.44 1028.59 1028.70 1028.77 1028.81 1028.82 1028.80 1028.75 1028.67 1028.58 1028.46 1028.33 1028.18 1028.04 1027.89 1027.75 1027.62 1027.49 1027.39 1027.29 1027.19 1027.10
1016.56 1017.55 1018.51 1019.42 1020.28 1021.07 1021.79 1022.44 1023.05 1023.60 1024.12 1024.61 1025.07 1025.51 1025.93 1026.33 1026.71 1027.06 1027.37 1027.65 1027.90 1028.10 1028.27 1028.40 1028.50 1028.56 1028.59 1028.58 1028.55 1028.49 1028.41 1028.30 1028.19 1028.05 1027.92 1027.79 1027.67 1027.56 1027.47 1027.40 1027.35 1027.30 1027.26 1027.22
1017.46 1018.33 1019.17 1019.96 1020.70 1021.38 1022.02 1022.61 1023.16 1023.68 1024.17 1024.64 1025.09 1025.52 1025.92 1026.30 1026.65 1026.97 1027.25 1027.50 1027.72 1027.89 1028.03 1028.14 1028.22 1028.27 1028.28 1028.27 1028.22 1028.15 1028.06 1027.95 1027.83 1027.70 1027.58 1027.46 1027.37 1027.29 1027.25 1027.23 1027.23 1027.25 1027.27 1027.27
Thickness
5741 5748 5751 5748 5749 5752 5752 5758 5757 5764 5770 5777 5783 5784 5786 5788 5789 5789 5788 5788 5787 5785 5785 5785 5784 5782 5781 5779 5778 5776 5772 5768 5765 5763 5761 5758 5756 5754 5751 5749 5748 5746 5744 5742
5727 5738 5742 5741 5748 5750 5752 5758 5761 5765 5767 5782 5783 5783 5781 5782 5782 5781 5781 5782 5782 5781 5780 5779 5779 5778 5776 5774 5772 5771 5767 5764 5762 5760 5757 5755 5752 5750 5748 5746 5744 5742 5740 5738
5718 5730 5729 5725 5742 5747 5749 5757 5760 5757 5766 5774 5772 5772 5772 5775 5776 5775 5777 5778 5777 5776 5775 5775 5775 5774 5772 5770 5768 5765 5762 5760 5757 5756 5753 5750 5749 5746 5743 5742 5740 5737 5736 5734
5718 5714 5701 5734 5753 5753 5750 5753 5760 5761 5764 5766 5766 5768 5770 5772 5771 5771 5772 5773 5773 5773 5773 5773 5773 5771 5769 5766 5763 5760 5757 5755 5753 5751 5749 5747 5744 5741 5739 5737 5735 5733 5731 5730
5712 5707 5714 5728 5740 5745 5741 5741 5753 5754 5756 5760 5763 5762 5762 5766 5767 5767 5768 5768 5769 5770 5770 5769 5767 5765 5764 5761 5758 5754 5752 5749 5748 5747 5744 5742 5739 5736 5734 5732 5729 5728 5726 5724
5704 5701 5701 5723 5737 5744 5740 5730 5747 5750 5749 5752 5755 5752 5752 5757 5760 5761 5762 5762 5762 5763 5763 5761 5760 5760 5757 5754 5751 5748 5746 5744 5743 5741 5738 5736 5733 5731 5729 5727 5725 5723 5720 5718
5697 5699 5711 5724 5731 5733 5718 5724 5740 5744 5745 5746 5747 5749 5749 5751 5751 5753 5754 5754 5755 5755 5755 5753 5753 5752 5749 5747 5743 5742 5740 5738 5736 5734 5732 5730 5728 5726 5724 5722 5720 5717 5714 5712
5694 5693 5700 5717 5723 5720 5721 5728 5734 5736 5739 5739 5739 5741 5742 5741 5741 5742 5744 5745 5747 5746 5745 5745 5745 5744 5741 5738 5737 5735 5733 5730 5728 5727 5726 5725 5722 5720 5718 5716 5712 5710 5708 5706
5694 5695 5700 5710 5712 5714 5718 5720 5724 5728 5731 5732 5731 5731 5732 5732 5732 5733 5735 5736 5738 5738 5737 5737 5737 5736 5733 5731 5730 5728 5725 5722 5720 5719 5718 5717 5715 5713 5711 5708 5708 5707 5705 5701
5681 5688 5693 5698 5703 5706 5710 5712 5717 5720 5723 5724 5722 5723 5723 5722 5722 5723 5725 5727 5729 5730 5728 5728 5729 5729 5727 5726 5724 5722 5718 5715 5713 5712 5711 5709 5708 5707 5704 5702 5701 5700 5698 5695
5671 5677 5683 5688 5692 5696 5700 5705 5708 5712 5714 5715 5715 5714 5714 5713 5714 5715 5717 5719 5720 5720 5719 5718 5719 5720 5720 5719 5718 5715 5712 5709 5707 5705 5703 5699 5696 5692 5691 5688 5688 5689 5689 5686
5666 5671 5676 5678 5684 5688 5691 5694 5698 5701 5703 5706 5707 5706 5706 5705 5705 5706 5708 5709 5710 5711 5710 5710 5710 5710 5711 5711 5710 5707 5705 5702 5701 5698 5695 5693 5688 5680 5674 5674 5672 5672 5671 5671
5659 5665 5668 5671 5675 5680 5683 5687 5690 5692 5694 5695 5696 5697 5697 5696 5696 5697 5698 5699 5700 5700 5700 5701 5701 5701 5702 5703 5702 5700 5698 5695 5693 5691 5688 5686 5683 5677 5670 5662 5659 5657 5656 5655
5651 5655 5656 5662 5666 5672 5675 5678 5681 5683 5685 5686 5686 5686 5686 5686 5686 5686 5687 5688 5690 5691 5691 5692 5692 5692 5694 5694 5694 5692 5690 5687 5685 5683 5681 5678 5675 5671 5667 5663 5657 5650 5643 5640
5643 5648 5651 5655 5659 5662 5666 5668 5669 5670 5672 5673 5674 5675 5675 5676 5675 5675 5676 5679 5679 5680 5681 5682 5682 5683 5684 5685 5685 5683 5682 5680 5677 5675 5673 5669 5666 5663 5659 5655 5650 5645 5639 5632
5635 5640 5644 5647 5649 5653 5656 5658 5659 5660 5661 5662 5663 5663 5664 5666 5666 5666 5667 5668 5669 5669 5670 5671 5671 5673 5675 5676 5675 5674 5672 5669 5668 5666 5664 5661 5657 5654 5650 5645 5641 5636 5632 5628
5627 5630 5635 5638 5641 5644 5647 5649 5650 5650 5651 5651 5652 5653 5654 5654 5654 5654 5655 5657 5659 5659 5660 5660 5661 5663 5665 5666 5666 5666 5664 5660 5658 5657 5655 5652 5648 5644 5640 5636 5631 5626 5621 5615
5623 5626 5630 5631 5634 5636 5637 5638 5639 5640 5639 5640 5641 5642 5642 5642 5642 5642 5644 5646 5648 5649 5650 5650 5651 5653 5654 5655 5656 5657 5655 5653 5651 5648 5644 5641 5638 5634 5631 5626 5621 5615 5610 5605
5615 5618 5621 5623 5626 5627 5627 5627 5628 5628 5628 5629 5630 5630 5631 5631 5631 5632 5633 5635 5637 5638 5638 5640 5640 5643 5644 5644 5646 5646 5646 5643 5640 5636 5632 5627 5626 5623 5619 5615 5610 5605 5601 5597
5609 5612 5614 5616 5617 5618 5617 5617 5617 5618 5618 5620 5620 5620 5620 5620 5621 5622 5623 5625 5626 5627 5628 5630 5632 5633 5634 5634 5636 5636 5634 5632 5628 5624 5621 5618 5614 5610 5606 5602 5598 5594 5590 5585
5602 5605 5607 5608 5607 5607 5608 5608 5608 5608 5609 5611 5611 5611 5610 5610 5612 5613 5615 5615 5614 5617 5619 5620 5622 5623 5623 5623 5623 5624 5622 5619 5616 5613 5610 5606 5602 5597 5593 5589 5586 5582 5577 5573
5595 5597 5598 5599 5599 5599 5600 5600 5600 5600 5601 5602 5602 5602 5602 5601 5603 5604 5604 5605 5605 5606 5611 5612 5612 5610 5611 5612 5612 5611 5609 5607 5604 5601 5598 5595 5591 5586 5582 5578 5574 5570 5565 5561
5589 5590 5590 5591 5592 5592 5592 5592 5593 5593 5593 5593 5594 5595 5595 5596 5597 5599 5597 5595 5597 5597 5601 5600 5598 5598 5599 5601 5601 5599 5598 5595 5592 5589 5586 5583 5579 5575 5570 5566 5562 5557 5553 5549
5581 5582 5583 5584 5585 5585 5585 5585 5585 5585 5586 5586 5586 5587 5588 5589 5588 5589 5588 5585 5586 5588 5588 5585 5586 5587 5589 5591 5590 5588 5586 5583 5580 5577 5573 5570 5567 5563 5559 5555 5551 5546 5542 5538
5575 5576 5577 5577 5578 5579 5579 5579 5579 5579 5580 5580 5580 5580 5582 5583 5583 5582 5581 5580 5578 5580 5579 5577 5577 5578 5581 5581 5579 5577 5575 5572 5569 5566 5563 5559 5556 5552 5548 5543 5539 5535 5531 5527
5569 5570 5571 5572 5573 5574 5575 5575 5575 5575 5575 5574 5574 5575 5576 5576 5576 5576 5575 5574 5573 5572 5573 5572 5571 5570 5572 5570 5568 5566 5563 5560 5558 5556 5552 5548 5544 5540 5537 5533 5528 5525 5520 5515
5564 5564 5565 5566 5567 5568 5570 5571 5571 5571 5572 5572 5570 5570 5570 5570 5570 5570 5569 5568 5567 5567 5566 5565 5564 5563 5562 5560 5558 5555 5553 5550 5547 5544 5541 5537 5533 5530 5526 5522 5518 5514 5510 5506